| time (UTC) | temp C | wind direction | speed KPH | gust KPH | rain 1hr cm | rain 24hr cm | rain mn cm | humidity % | barometer mb |
| 20260506161557 | 9 | 30 | 1.6 | 0.0 | 0.00 | 0.00 | 1.12 | 93 | 1005.6 |
| 20260506160053 | 10 | 30 | 0.0 | 0.0 | 0.00 | 0.00 | 1.09 | 93 | 1005.8 |
| 20260506154553 | 10 | 30 | 1.6 | 0.0 | 0.00 | 0.00 | 1.02 | 93 | 1005.8 |
| 20260506153050 | 10 | 30 | 1.6 | 0.0 | 0.00 | 0.00 | 0.94 | 93 | 1005.7 |
| 20260506151547 | 10 | 30 | 1.6 | 0.0 | 0.00 | 0.00 | 0.84 | 93 | 1006.0 |
| 20260506150047 | 10 | 30 | 1.6 | 0.0 | 0.00 | 0.00 | 0.76 | 93 | 1006.1 |
| 20260506144559 | 10 | 27 | 1.6 | 0.0 | 0.00 | 0.00 | 0.69 | 92 | 1006.2 |
| 20260506143044 | 10 | 24 | 1.6 | 0.0 | 0.00 | 0.00 | 0.61 | 92 | 1006.8 |
| 20260506141539 | 11 | 23 | 3.2 | 0.0 | 0.00 | 0.00 | 0.53 | 92 | 1006.7 |
| 20260506140035 | 11 | 14 | 1.6 | 0.0 | 0.00 | 0.00 | 0.46 | 93 | 1006.5 |
| 20260506134533 | 11 | 25 | 0.0 | 0.0 | 0.00 | 0.00 | 0.41 | 93 | 1006.4 |
| 20260506133033 | 11 | 22 | 0.0 | 0.0 | 0.00 | 0.00 | 0.36 | 93 | 1006.4 |
| 20260506131534 | 11 | 24 | 1.6 | 0.0 | 0.00 | 0.00 | 0.30 | 92 | 1006.2 |
| 20260506130030 | 11 | 48 | 1.6 | 0.0 | 0.00 | 0.00 | 0.23 | 92 | 1006.3 |
| 20260506124530 | 12 | 39 | 1.6 | 0.0 | 0.00 | 0.00 | 0.15 | 92 | 1006.3 |
| 20260506123030 | 12 | 42 | 3.2 | 0.0 | 0.00 | 0.00 | 0.10 | 92 | 1006.8 |
| 20260506121525 | 12 | 17 | 1.6 | 0.0 | 0.00 | 0.00 | 0.05 | 93 | 1007.0 |
| 20260506120033 | 13 | 27 | 1.6 | 0.0 | 0.00 | 0.00 | 0.03 | 93 | 1006.5 |
| 20260506114518 | 13 | 150 | 1.6 | 0.0 | 0.00 | 0.00 | 0.03 | 93 | 1006.0 |
| 20260506113028 | 13 | 159 | 0.0 | 0.0 | 0.00 | 0.00 | 0.03 | 93 | 1006.4 |
| 20260506111516 | 13 | 158 | 1.6 | 0.0 | 0.00 | 0.00 | 0.03 | 93 | 1006.6 |
| 20260506110014 | 13 | 187 | 0.0 | 0.0 | 0.00 | 0.00 | 0.03 | 93 | 1006.2 |
| 20260506104512 | 13 | 194 | 0.0 | 0.0 | 0.00 | 0.00 | 0.03 | 92 | 1006.4 |
| 20260506103013 | 12 | 194 | 0.0 | 0.0 | 0.00 | 0.00 | 0.03 | 92 | 1006.2 |
| 20260506101510 | 13 | 194 | 0.0 | 0.0 | 0.00 | 0.00 | 0.03 | 92 | 1006.1 |
| 20260506100010 | 12 | 194 | 0.0 | 0.0 | 0.00 | 0.00 | 0.03 | 92 | 1006.0 |
| 20260506094509 | 12 | 194 | 0.0 | 0.0 | 0.00 | 0.00 | 0.03 | 92 | 1005.9 |
| 20260506093007 | 13 | 194 | 0.0 | 0.0 | 0.00 | 0.00 | 0.03 | 92 | 1005.8 |
| 20260506091505 | 13 | 194 | 0.0 | 0.0 | 0.00 | 0.00 | 0.03 | 92 | 1005.9 |
| 20260506090004 | 13 | 194 | 0.0 | 0.0 | 0.00 | 0.00 | 0.03 | 92 | 1006.0 |
| 20260506084616 | 13 | 194 | 0.0 | 0.0 | 0.00 | 0.00 | 0.03 | 92 | 1006.1 |
| 20260506083057 | 13 | 194 | 0.0 | 0.0 | 0.00 | 0.00 | 0.03 | 91 | 1006.3 |
| 20260506081606 | 13 | 194 | 0.0 | 0.0 | 0.00 | 0.00 | 0.03 | 91 | 1006.6 |
| 20260506073059 | 13 | 194 | 0.0 | 0.0 | 0.00 | 0.00 | 0.03 | 91 | 1006.9 |
| 20260506071554 | 13 | 194 | 0.0 | 0.0 | 0.00 | 0.00 | 0.03 | 91 | 1006.7 |
| 20260506061555 | 14 | 194 | 0.0 | 0.0 | 0.00 | 0.00 | 0.03 | 90 | 1006.8 |
| 20260506044544 | 15 | 194 | 0.0 | 0.0 | 0.00 | 0.00 | 0.00 | 86 | 1006.9 |
| 20260506043039 | 16 | 194 | 0.0 | 0.0 | 0.00 | 0.00 | 0.00 | 85 | 1007.2 |
| 20260506041529 | 16 | 194 | 0.0 | 0.0 | 0.00 | 0.00 | 0.00 | 84 | 1006.9 |
| 20260506040023 | 15 | 194 | 0.0 | 0.0 | 0.00 | 0.00 | 0.00 | 85 | 1007.0 |
| 20260506034526 | 15 | 194 | 1.6 | 0.0 | 0.00 | 0.00 | 0.08 | 85 | 1007.0 |
| 20260506033021 | 15 | 194 | 0.0 | 0.0 | 0.00 | 0.00 | 0.08 | 85 | 1006.8 |
| 20260506031519 | 15 | 194 | 0.0 | 0.0 | 0.00 | 0.00 | 0.08 | 84 | 1006.5 |
| 20260506030021 | 15 | 194 | 0.0 | 0.0 | 0.00 | 0.00 | 0.08 | 84 | 1006.5 |
| 20260506024533 | 15 | 194 | 0.0 | 0.0 | 0.00 | 0.00 | 0.08 | 83 | 1006.4 |
| 20260506023016 | 16 | 194 | 0.0 | 0.0 | 0.00 | 0.00 | 0.08 | 82 | 1006.4 |
| 20260506021514 | 16 | 194 | 0.0 | 0.0 | 0.00 | 0.00 | 0.08 | 81 | 1006.3 |
| 20260506020012 | 16 | 194 | 0.0 | 0.0 | 0.00 | 0.00 | 0.08 | 80 | 1006.1 |
| 20260506014509 | 16 | 194 | 0.0 | 0.0 | 0.00 | 0.00 | 0.08 | 79 | 1006.0 |
| 20260506013007 | 16 | 194 | 0.0 | 0.0 | 0.00 | 0.00 | 0.08 | 79 | 1005.9 |
| 20260506011507 | 16 | 194 | 0.0 | 0.0 | 0.00 | 0.00 | 0.08 | 79 | 1005.8 |
| 20260506010007 | 16 | 194 | 0.0 | 0.0 | 0.00 | 0.00 | 0.08 | 77 | 1005.5 |
| 20260506004507 | 17 | 194 | 0.0 | 0.0 | 0.00 | 0.00 | 0.08 | 75 | 1005.1 |
| 20260506003005 | 17 | 194 | 0.0 | 0.0 | 0.00 | 0.00 | 0.08 | 73 | 1005.0 |
| 20260506001504 | 17 | 194 | 0.0 | 0.0 | 0.00 | 0.00 | 0.08 | 71 | 1004.7 |
| 20260506000007 | 18 | 194 | 0.0 | 0.0 | 0.00 | 0.00 | 0.08 | 71 | 1004.8 |
| 20260505234504 | 18 | 194 | 0.0 | 0.0 | 0.00 | 0.00 | 0.08 | 70 | 1004.8 |
| 20260505233002 | 18 | 191 | 3.2 | 0.0 | 0.00 | 0.00 | 0.08 | 70 | 1004.5 |
| 20260505231608 | 18 | 194 | 1.6 | 0.0 | 0.00 | 0.00 | 0.08 | 68 | 1004.4 |
| 20260505230059 | 19 | 182 | 1.6 | 0.0 | 0.00 | 0.00 | 0.08 | 67 | 1004.1 |
| 20260505224558 | 19 | 209 | 4.8 | 0.0 | 0.00 | 0.00 | 0.08 | 66 | 1004.5 |
| 20260505223105 | 19 | 217 | 6.4 | 0.0 | 0.00 | 0.00 | 0.08 | 65 | 1004.5 |
| 20260505221600 | 19 | 230 | 8.0 | 0.0 | 0.00 | 0.00 | 0.08 | 66 | 1004.5 |
| 20260505220056 | 20 | 196 | 1.6 | 0.0 | 0.00 | 0.00 | 0.08 | 66 | 1004.2 |
| 20260505214615 | 20 | 298 | 4.8 | 0.0 | 0.00 | 0.00 | 0.08 | 63 | 1003.7 |
| 20260505213102 | 20 | 288 | 6.4 | 0.0 | 0.00 | 0.00 | 0.08 | 63 | 1004.2 |
| 20260505211603 | 21 | 311 | 8.0 | 0.0 | 0.00 | 0.00 | 0.08 | 63 | 1004.5 |
| 20260505210054 | 21 | 268 | 1.6 | 0.0 | 0.00 | 0.00 | 0.08 | 66 | 1003.3 |
| 20260505204551 | 21 | 242 | 1.6 | 0.0 | 0.00 | 0.00 | 0.08 | 64 | 1002.6 |
| 20260505203050 | 20 | 248 | 1.6 | 0.0 | 0.00 | 0.00 | 0.08 | 67 | 1002.5 |
| 20260505201554 | 19 | 35 | 1.6 | 0.0 | 0.00 | 0.00 | 0.08 | 76 | 1002.1 |
| 20260505200057 | 20 | 345 | 14.5 | 0.0 | 0.00 | 0.00 | 0.08 | 69 | 1002.9 |
| 20260505194549 | 21 | 304 | 11.3 | 0.0 | 0.00 | 0.00 | 0.08 | 61 | 1002.8 |
| 20260505193047 | 25 | 300 | 9.7 | 0.0 | 0.00 | 0.00 | 0.00 | 47 | 1002.2 |
| 20260505191547 | 25 | 213 | 16.1 | 0.0 | 0.00 | 0.00 | 0.00 | 45 | 1001.1 |
| 20260505190048 | 25 | 195 | 14.5 | 0.0 | 0.00 | 0.00 | 0.00 | 45 | 1000.8 |
| 20260505184545 | 26 | 177 | 17.7 | 0.0 | 0.00 | 0.00 | 0.00 | 45 | 1000.8 |
| 20260505183053 | 26 | 192 | 19.3 | 0.0 | 0.00 | 0.00 | 0.00 | 44 | 1001.1 |
| 20260505181539 | 26 | 219 | 14.5 | 0.0 | 0.00 | 0.00 | 0.00 | 45 | 1001.1 |
| 20260505180041 | 26 | 219 | 16.1 | 0.0 | 0.00 | 0.00 | 0.00 | 44 | 1001.6 |
| 20260505174536 | 26 | 134 | 17.7 | 0.0 | 0.00 | 0.00 | 0.00 | 44 | 1001.9 |
| 20260505173030 | 26 | 232 | 19.3 | 0.0 | 0.00 | 0.00 | 0.00 | 45 | 1002.2 |
| 20260505171529 | 26 | 223 | 14.5 | 0.0 | 0.00 | 0.00 | 0.00 | 44 | 1002.2 |
| 20260505170029 | 26 | 228 | 17.7 | 0.0 | 0.00 | 0.00 | 0.00 | 43 | 1002.3 |
| 20260505164525 | 26 | 222 | 16.1 | 0.0 | 0.00 | 0.00 | 0.00 | 45 | 1002.7 |
| 20260505163021 | 25 | 188 | 14.5 | 0.0 | 0.00 | 0.00 | 0.00 | 47 | 1002.9 |